DELTA 1 DEB, 10829

Orbit data source: Space-Track

DELTA 1 DEB, 10829 is space debris in SSO originally from a launch on Thu, 29 Jul 1976 UTC launched from the Air Force Western Test Range (AFWTR). Debris objects in space refer to the collection of defunct objects orbiting the Earth. Examples of debris include non-operational satellites, rocket bodies, and fragments generated from explosions, collisions, or faulty payload assembly.

Loading next visibility...
Identifier
10829, 1976-077BZ
Orbit
SSO
Country
Flag of USUS
Related business
Manufacturer
Unknown
Mission
Spacecraft
Bus & Motor
Unknown
Mass
Unknown
Launch date (UTC)
1976-07-29 (50 years ago)
Launch vehicle
Unknown
Launch site
Air Force Western Test Range (AFWTR)
Object type
Payload
Rocket body
Debris
Shape & HBR
Unknown shape, 0.1 m
Radar Cross Section
Small (<0.1 m²)

Expand to show TLE details & history
Last TLE update: 3 days ago

TLE from 3 days ago
0 DELTA 1 DEB
1 10829U 76077BZ  26125.44931054  .00000134  00000-0  13759-2 0  9998
2 10829 101.7752  84.7567 0039471 188.2268 293.8409 12.36720435243851
Epoch: 2026-05-05T10:47Z
TLE epoch observation values (Epoch: 2026-05-05T10:47:00.430Z)
Latitude
56.53533°
Longitude
-102.0289°
Altitude
1,517.279 km
Speed
7.117 km/s
True Right ascension
18h 52m 11s
True Declination
56° 23' 32"
Sunlit
Object was in daylight at epoch
Visualization orbit readout
Latitude
Unknown
Longitude
Unknown
Altitude
Unknown
Speed
Unknown
Apparent Right ascension
Unknown
Apparent Declination
Unknown
Sunlit
N/A
Visualization observer readout
Local Sidereal Time
13:28:32
Azimuth
Unknown
Elevation
Unknown
Doppler factor
Unknown
Orbital elements
Apogee altitude
1,549.269 km
Perigee altitude
1,486.935 km
Semi-major axis
7,896.239 km
Eccentricity
0.00395
Inclination
101.7752°
RAAN
84.7567°
Arg. of periapsis
188.2268°
True anomaly
293.42637°
Mean anomaly
293.8409°
Eccentric anomaly
293.63372°
Mean motion
3.09323 °/min
Orbital period
116.38 mins
BSTAR
0.0013759
Loading maneuver chart data...
Computing Atmospheric mass density...
Loading historical data...
Loading historical data...
Loading historical data...
Loading historical data...
Loading historical data...
Loading historical data...
Loading historical data...

Documentation

Showing up to 5 results
|